Search the data

BODC Cruise Metadata Report for FRV Scotia (749S) cruise 0688S_2

Introduction

This report collates information from the BODC cruise inventory and oceanographic databases. It presents

Cruise Inventory Information

Long name FRV Scotia (749S) cruise 0688S_2
Short name 0688S_2
Objectives and Narrative 1. To complete the hydrochemical survey of the Clyde Basin and deploy two current meter moorings on the Great Plateau.
2. To deploy three current meter moorings west of Orkney and one west of Shetland.
3. To carry out an extensive hydrographic survey in the area of the Fair Isle and Dooley currents.
4. To attempt the recovery by trawl of mooring EC4 at 58 21'N 00 27.6'W approximately.
5. To collect water samples for radio-caesium analysis.
6. To conduct tests of the prototype version of the Marine Position Recorder.
Ship FRV Scotia
Departure Port
Departure Date 1988-06-17
Arrival Port Aberdeen, United Kingdom
Arrival Date 1988-06-28
Principal Scientist(s) J H Anthony Martin (Scottish Office Agriculture and Fisheries Department Aberdeen Marine Laboratory)
Responsible Organisation
Associated Project(s)
IHB Sea Areas Visited North Sea, Inner Seas off the West Coast of Scotland, North East Atlantic Ocean (limit 40W)
Marsden Squares Visited 181;3/181;4/217;1
Work Area Description Firth of Clyde, Minches, west of Orkney and Shetland, Fair Isle Channel, NW North Sea
Work Area Bounding Polygon 55N,10W; 65N,10W; 65N,0E; 55N,0E; 55N,10W
Southern Limit 55N
Northern Limit 65N
Western Limit 10W
Eastern Limit 0E

Cruise Inventory Datasets

Physical oceanography  
CTD stations Quantity: number of stations = 91
Description:  
Surface measurements underway (T,S) Description:  
Water bottle stations Quantity: number of stations = 66
Description: 20 S surface  
Chemical oceanography  
Nitrate Quantity: number of stations = 43
Description:  
Phosphate Quantity: number of stations = 43
Description:  

Cruise Inventory Mooring/Buoy Operations

No information on datasets is currently available

Summary of BODC Data Holdings for the Cruise

National Oceanographic Database

Summary

# Series Instrument Description Parameters
91 CTD/STD cast Electrical conductivity of the water column
Salinity of the water column
Temperature of the water column
Vertical spatial coordinates

Note: Parameter terms are taken from the BODC Parameter Discovery Vocabulary XML (SKOS)

Full List

BODC Reference Instrument Description Date/Time Location  
175390 CTD/STD cast 1988-06-19 11:47Z 55° 50' N, 5° 20' W Click for more
175408 CTD/STD cast 1988-06-19 17:46Z 55° 1' N, 5° 24' W Click for more
175421 CTD/STD cast 1988-06-19 19:23Z 55° 10' N, 5° 24' W Click for more
175433 CTD/STD cast 1988-06-19 20:25Z 55° 10' N, 5° 34' W Click for more
175445 CTD/STD cast 1988-06-20 22:37Z 59° 10' N, 5° 28' W Click for more
175457 CTD/STD cast 1988-06-21 00:21Z 59° 10' N, 4° 59' W Click for more
175469 CTD/STD cast 1988-06-21 01:44Z 59° 10' N, 4° 30' W Click for more
175470 CTD/STD cast 1988-06-21 03:22Z 59° 10' N, 4° 0' W Click for more
175482 CTD/STD cast 1988-06-21 04:55Z 59° 10' N, 3° 30' W Click for more
175494 CTD/STD cast 1988-06-21 06:16Z 59° 19' N, 3° 30' W Click for more
175501 CTD/STD cast 1988-06-21 16:16Z 59° 19' N, 4° 0' W Click for more
175513 CTD/STD cast 1988-06-21 17:57Z 59° 19' N, 4° 30' W Click for more
175525 CTD/STD cast 1988-06-21 19:38Z 59° 19' N, 5° 0' W Click for more
175537 CTD/STD cast 1988-06-21 21:11Z 59° 30' N, 5° 0' W Click for more
175549 CTD/STD cast 1988-06-21 22:43Z 59° 30' N, 4° 30' W Click for more
175550 CTD/STD cast 1988-06-22 00:26Z 59° 30' N, 4° 0' W Click for more
175562 CTD/STD cast 1988-06-22 01:40Z 59° 39' N, 3° 59' W Click for more
175574 CTD/STD cast 1988-06-22 03:46Z 59° 40' N, 4° 30' W Click for more
175586 CTD/STD cast 1988-06-22 05:22Z 59° 49' N, 4° 0' W Click for more
175598 CTD/STD cast 1988-06-22 07:14Z 60° 0' N, 3° 30' W Click for more
175605 CTD/STD cast 1988-06-22 10:41Z 60° 0' N, 3° 3' W Click for more
175617 CTD/STD cast 1988-06-22 18:17Z 60° 9' N, 2° 30' W Click for more
175629 CTD/STD cast 1988-06-22 20:21Z 60° 10' N, 3° 0' W Click for more
175630 CTD/STD cast 1988-06-22 22:20Z 60° 10' N, 3° 30' W Click for more
175642 CTD/STD cast 1988-06-22 23:56Z 60° 19' N, 3° 2' W Click for more
175654 CTD/STD cast 1988-06-23 01:37Z 60° 19' N, 2° 29' W Click for more
175666 CTD/STD cast 1988-06-23 03:33Z 60° 20' N, 2° 0' W Click for more
175678 CTD/STD cast 1988-06-23 04:42Z 60° 12' N, 1° 49' W Click for more
175691 CTD/STD cast 1988-06-23 06:08Z 60° 0' N, 2° 0' W Click for more
175709 CTD/STD cast 1988-06-23 07:55Z 60° 0' N, 2° 30' W Click for more
175710 CTD/STD cast 1988-06-23 09:47Z 59° 49' N, 2° 30' W Click for more
175722 CTD/STD cast 1988-06-23 10:52Z 59° 40' N, 2° 30' W Click for more
175734 CTD/STD cast 1988-06-23 12:24Z 59° 40' N, 2° 0' W Click for more
175746 CTD/STD cast 1988-06-23 14:12Z 59° 49' N, 1° 29' W Click for more
175758 CTD/STD cast 1988-06-24 11:51Z 59° 49' N, 2° 0' W Click for more
175771 CTD/STD cast 1988-06-24 13:55Z 59° 40' N, 1° 30' W Click for more
175783 CTD/STD cast 1988-06-24 14:54Z 59° 30' N, 1° 30' W Click for more
175795 CTD/STD cast 1988-06-24 16:37Z 59° 30' N, 2° 0' W Click for more
175802 CTD/STD cast 1988-06-24 18:28Z 59° 30' N, 2° 30' W Click for more
175814 CTD/STD cast 1988-06-24 20:36Z 59° 25' N, 3° 0' W Click for more
175826 CTD/STD cast 1988-06-24 21:18Z 59° 30' N, 3° 0' W Click for more
175838 CTD/STD cast 1988-06-24 22:24Z 59° 39' N, 3° 0' W Click for more
175851 CTD/STD cast 1988-06-24 23:45Z 59° 49' N, 3° 0' W Click for more
175863 CTD/STD cast 1988-06-25 01:21Z 59° 49' N, 3° 30' W Click for more
175875 CTD/STD cast 1988-06-25 02:19Z 59° 40' N, 3° 30' W Click for more
175887 CTD/STD cast 1988-06-25 03:27Z 59° 30' N, 3° 30' W Click for more
175899 CTD/STD cast 1988-06-25 06:14Z 59° 0' N, 3° 30' W Click for more
175906 CTD/STD cast 1988-06-25 08:04Z 59° 0' N, 4° 0' W Click for more
175918 CTD/STD cast 1988-06-25 09:35Z 59° 0' N, 4° 30' W Click for more
175931 CTD/STD cast 1988-06-25 11:06Z 59° 0' N, 5° 0' W Click for more
175943 CTD/STD cast 1988-06-25 12:12Z 58° 49' N, 5° 0' W Click for more
175955 CTD/STD cast 1988-06-25 13:30Z 58° 40' N, 5° 0' W Click for more
175967 CTD/STD cast 1988-06-25 14:57Z 58° 40' N, 4° 30' W Click for more
175979 CTD/STD cast 1988-06-25 16:10Z 58° 49' N, 4° 30' W Click for more
175980 CTD/STD cast 1988-06-25 17:33Z 58° 49' N, 3° 59' W Click for more
175992 CTD/STD cast 1988-06-25 18:45Z 58° 40' N, 4° 0' W Click for more
176006 CTD/STD cast 1988-06-25 20:10Z 58° 40' N, 3° 30' W Click for more
176018 CTD/STD cast 1988-06-25 21:14Z 58° 49' N, 3° 30' W Click for more
176031 CTD/STD cast 1988-06-25 22:03Z 58° 56' N, 3° 36' W Click for more
176043 CTD/STD cast 1988-06-25 23:09Z 59° 1' N, 3° 42' W Click for more
176055 CTD/STD cast 1988-06-26 00:18Z 59° 7' N, 3° 48' W Click for more
176067 CTD/STD cast 1988-06-26 01:06Z 59° 13' N, 3° 54' W Click for more
176079 CTD/STD cast 1988-06-26 01:55Z 59° 19' N, 4° 0' W Click for more
176080 CTD/STD cast 1988-06-26 02:39Z 59° 19' N, 3° 48' W Click for more
176092 CTD/STD cast 1988-06-26 03:32Z 59° 19' N, 3° 31' W Click for more
176111 CTD/STD cast 1988-06-26 04:25Z 59° 19' N, 3° 16' W Click for more
176123 CTD/STD cast 1988-06-26 07:28Z 59° 16' N, 2° 14' W Click for more
176135 CTD/STD cast 1988-06-26 08:21Z 59° 16' N, 2° 4' W Click for more
176147 CTD/STD cast 1988-06-26 08:54Z 59° 16' N, 1° 55' W Click for more
176159 CTD/STD cast 1988-06-26 09:40Z 59° 16' N, 1° 48' W Click for more
176160 CTD/STD cast 1988-06-26 10:17Z 59° 16' N, 1° 40' W Click for more
176172 CTD/STD cast 1988-06-26 11:04Z 59° 16' N, 1° 30' W Click for more
176184 CTD/STD cast 1988-06-26 12:04Z 59° 16' N, 1° 20' W Click for more
176196 CTD/STD cast 1988-06-26 13:06Z 59° 17' N, 1° 10' W Click for more
176203 CTD/STD cast 1988-06-26 13:48Z 59° 16' N, 1° 0' W Click for more
176215 CTD/STD cast 1988-06-26 15:00Z 59° 17' N, 0° 40' W Click for more
176227 CTD/STD cast 1988-06-26 16:07Z 59° 16' N, 0° 19' W Click for more
176239 CTD/STD cast 1988-06-26 17:12Z 59° 17' N, 0° 0' W Click for more
176240 CTD/STD cast 1988-06-26 18:58Z 59° 8' N, 0° 12' E Click for more
176252 CTD/STD cast 1988-06-26 20:09Z 58° 58' N, 0° 24' E Click for more
176264 CTD/STD cast 1988-06-26 21:25Z 58° 49' N, 0° 36' E Click for more
176276 CTD/STD cast 1988-06-26 23:07Z 58° 41' N, 0° 48' E Click for more
176288 CTD/STD cast 1988-06-27 01:18Z 58° 32' N, 0° 6' E Click for more
176307 CTD/STD cast 1988-06-27 03:29Z 58° 18' N, 0° 24' W Click for more
176319 CTD/STD cast 1988-06-27 05:00Z 58° 9' N, 0° 49' W Click for more
176320 CTD/STD cast 1988-06-27 15:04Z 58° 13' N, 0° 36' W Click for more
176332 CTD/STD cast 1988-06-27 16:49Z 58° 4' N, 1° 4' W Click for more
176344 CTD/STD cast 1988-06-27 17:49Z 57° 58' N, 1° 19' W Click for more
176356 CTD/STD cast 1988-06-27 18:42Z 57° 55' N, 1° 35' W Click for more
176368 CTD/STD cast 1988-06-27 19:37Z 57° 52' N, 1° 51' W Click for more
176381 CTD/STD cast 1988-06-27 20:28Z 57° 48' N, 1° 58' W Click for more

Project Database

No data currently held for this cruise in the BODC Project Database

References

Track Charts

Track Chart

Reports

Cruise Report